Location: *
(49.9853°N, 3.5569°E)
Time: 11:54:46
(UTC+00:00)

Cosmos 405 Rocket - Pass Details

Date: 17 December 2019
Orbit: 490 x 555 km, 81.3° (Epoch: 17 January)

Event Time Altitude Azimuth Distance (km) Brightness Sun altitude
Rises 17:54:40 0° 344° (NNW) 2,584 6.3 -19.7°
Reaches altitude 10° 17:56:48 10° 341° (NNW) 1,699 5.4 -20.0°
Maximum altitude 18:00:27 58° 262° (W) 587 3.2 -20.6°
Drops below altitude 10° 18:04:07 10° 183° (S) 1,705 5.5 -21.2°
Sets 18:06:15 0° 179° (S) 2,594 6.4 -21.5°
